Greenville/Spartanburg, SC

1:03 PM EDT on April 26, 2017 (GMT -0400)
Greenville-Spartanburg International

Weather History for KGSP - October, 2011

Change the Weather History Date:

Sunday, October 9, 2011

  Actual Average Record
Temperature  
Mean Temperature 66 °F 64 °F  
Max Temperature 74 °F 75 °F 90 °F (1939)
Min Temperature 58 °F 53 °F 30 °F (1889)
Degree Days  
Heating Degree Days 0 3  
Month to date heating degree days 32 23  
Since 1 July heating degree days 39 40  
Cooling Degree Days 1 2  
Month to date cooling degree days 4 24  
Year to date cooling degree days 2035 1686  
Growing Degree Days 15 (Base 50)    
Moisture  
Dew Point 52 °F    
Average Humidity 61    
Maximum Humidity 72    
Minimum Humidity 49    
Precipitation  
Precipitation 0.00 in 0.11 in 2.45 in (1894)
Month to date precipitation 0.00 1.05  
Year to date precipitation 35.61 36.99  
Snow  
Snow 0.00 in 0.00 in 0.00 in ()
Month to date snowfall 0.0 0.0  
Since 1 July snowfall 0.0 0.0  
Since 1 September snowfall 0.0 0.0  
Snow Depth 0.00 in    
Sea Level Pressure  
Sea Level Pressure 30.31 in    
Wind  
Wind Speed 10 mph (NE)    
Max Wind Speed 18 mph    
Max Gust Speed 24 mph    
Visibility 10 miles    
Events      
T = Trace of Precipitation, MM = Missing Value Source: NWS Daily Summary

Daily Weather History Graph

Daily Weather History Graph

Search for Another Location

Airport or City:

Trip Planner

Search our weather history database for the weather conditions in past years. The results will help you decide how hot, cold, wet, or windy it might be!

Date:

Astronomy

Oct. 09, 2011 Rise Set
Actual Time 7:29 AM EDT 7:02 PM EDT
Civil Twilight 7:04 AM EDT 7:27 PM EDT
Nautical Twilight 6:35 AM EDT 7:56 PM EDT
Astronomical Twilight 6:05 AM EDT 8:26 PM EDT
Moon 5:36 PM EDT (10/9) 5:16 AM EDT (10/9)
Length of Visible Light 12h 23m
Length of Day
11h 32m
Waxing Gibbous, 95% of the Moon is Illuminated
Oct 9
Waxing Gibbous
Oct 11
Full
Oct 19
Last Quarter
Oct 26
New
Nov 2
First Quarter

Hourly Weather History & Observations

Time (EDT) Temp. Dew Point Humidity Pressure Visibility Wind Dir Wind Speed Gust Speed Precip Events Conditions
12:53 AM 59.0 °F 48.0 °F 67% 30.37 in 10.0 mi NNE 6.9 mph - N/A   Clear
1:53 AM 57.9 °F 48.0 °F 70% 30.36 in 10.0 mi NNE 5.8 mph - N/A   Clear
2:53 AM 59.0 °F 48.2 °F 67% 30.37 in 10.0 mi NNE 8.1 mph - N/A   Clear
3:53 AM 59.0 °F 48.0 °F 67% 30.34 in 10.0 mi NNE 8.1 mph - N/A   Clear
4:53 AM 59.0 °F 48.9 °F 69% 30.35 in 10.0 mi NNE 8.1 mph - N/A   Overcast
5:53 AM 59.0 °F 48.9 °F 69% 30.35 in 10.0 mi NNE 10.4 mph - N/A   Overcast
6:53 AM 59.0 °F 50.0 °F 72% 30.35 in 10.0 mi NNE 11.5 mph - N/A   Overcast
7:53 AM 60.1 °F 50.0 °F 69% 30.36 in 10.0 mi NNE 11.5 mph - N/A   Overcast
8:53 AM 60.1 °F 50.0 °F 69% 30.36 in 10.0 mi NNE 11.5 mph - N/A   Mostly Cloudy
9:53 AM 63.0 °F 51.1 °F 65% 30.37 in 10.0 mi NNE 16.1 mph 23.0 mph N/A   Scattered Clouds
10:53 AM 63.0 °F 52.0 °F 67% 30.37 in 10.0 mi NNE 12.7 mph - N/A   Clear
11:53 AM 66.9 °F 53.1 °F 61% 30.36 in 10.0 mi NE 13.8 mph 20.7 mph N/A   Overcast
12:53 PM 69.1 °F 53.1 °F 57% 30.34 in 10.0 mi NE 11.5 mph 21.9 mph N/A   Overcast
1:53 PM 69.1 °F 53.1 °F 57% 30.30 in 10.0 mi NE 13.8 mph - N/A   Clear
2:53 PM 73.0 °F 54.0 °F 51% 30.27 in 10.0 mi NE 11.5 mph 20.7 mph N/A   Partly Cloudy
3:53 PM 71.1 °F 54.0 °F 55% 30.26 in 10.0 mi ENE 12.7 mph - N/A   Overcast
4:53 PM 71.1 °F 54.0 °F 55% 30.25 in 10.0 mi ENE 10.4 mph - N/A   Overcast
5:53 PM 70.0 °F 55.0 °F 59% 30.23 in 10.0 mi NNE 6.9 mph - N/A   Clear
6:53 PM 69.1 °F 55.0 °F 61% 30.23 in 10.0 mi NE 8.1 mph - N/A   Clear
7:53 PM 68.0 °F 55.0 °F 63% 30.23 in 10.0 mi NNE 6.9 mph - N/A   Mostly Cloudy
8:53 PM 66.0 °F 55.0 °F 68% 30.24 in 10.0 mi NNE 8.1 mph - N/A   Clear
9:53 PM 66.9 °F 55.0 °F 66% 30.24 in 10.0 mi NNE 9.2 mph - N/A   Overcast
10:53 PM 66.0 °F 55.9 °F 70% 30.25 in 10.0 mi NE 10.4 mph - N/A   Scattered Clouds
11:53 PM 66.0 °F 55.0 °F 68% 30.24 in 10.0 mi NE 9.2 mph - N/A   Overcast